Vorticity
5 4 4 3 4 3 3 6 6 13 20 5 3 8 3 8 2 4 3 -3 4 2 5 3 5 9 -1 4 7 3 6 7 7 8 6 9 9 6 8 6 6 7 6 6 7 9 9 9 7 7 6 6 6 6 6 4 3 2 3 2 3 3 3 4 4 5 4 4 4 4 5 5 7 9 8 7 9 10 9 10 9 8 8 9 10 8 7 8 8 6 6 6 9 11 7 6 8
4 5 4 2 5 4 6 6 13 19 12 5 6 7 1 4 4 7 2 -2 6 2 6 7 7 9 1 5 6 4 7 7 7 6 6 7 7 6 7 7 8 8 8 8 8 8 8 7 6 7 7 6 6 5 3 2 2 2 3 3 4 4 4 4 4 5 5 5 5 5 6 6 10 10 7 6 8 8 7 8 10 10 8 8 10 9 9 7 5 6 6 6 8 10 8 5 6
4 5 4 5 6 5 8 -3 16 32 8 1 7 8 6 8 3 0 2 1 8 6 7 9 5 2 1 6 5 7 9 6 4 6 7 7 7 7 8 9 10 9 8 7 7 6 6 7 7 7 5 5 3 2 2 3 4 4 5 5 4 4 3 4 5 6 5 6 5 6 6 6 10 7 4 6 7 7 7 7 9 11 9 8 8 9 9 8 6 6 7 8 9 10 9 6 6
6 6 4 8 4 1 17 13 19 21 2 1 6 8 8 9 -3 -8 6 7 6 5 4 7 6 5 5 7 7 8 10 5 3 7 6 6 9 7 9 10 9 9 8 7 7 7 7 7 6 4 3 3 3 3 4 4 5 5 6 5 4 3 3 5 6 6 6 6 6 6 7 8 8 5 4 7 7 7 8 8 7 8 9 9 9 9 10 9 7 7 9 9 9 10 9 6 6
6 7 7 9 7 2 20 41 34 9 3 5 1 7 6 2 -4 -2 10 5 3 6 7 9 7 7 8 8 8 7 7 6 6 9 7 7 10 8 11 10 8 7 6 7 7 7 6 5 3 3 3 3 3 3 4 4 4 4 5 4 4 4 5 6 6 6 6 5 7 7 8 10 8 4 4 7 7 7 8 9 9 8 8 9 10 10 8 7 7 8 9 9 8 9 8 6 6
4 7 8 6 9 10 13 30 28 3 3 5 1 7 5 1 1 6 9 5 7 8 6 8 7 4 10 9 6 7 7 9 8 9 9 9 9 8 9 7 6 6 7 8 7 7 4 3 2 2 4 3 3 3 3 3 4 4 5 5 5 6 7 7 7 7 6 6 9 9 9 9 7 5 5 6 7 8 8 8 11 13 11 8 9 9 9 9 9 8 8 9 8 8 9 8 7
5 5 4 6 7 16 14 9 7 0 5 7 5 5 3 3 3 4 5 7 9 7 6 9 7 3 11 9 5 9 8 10 8 7 10 9 9 8 7 6 5 6 8 8 6 5 2 2 2 3 3 2 3 3 3 4 5 5 5 6 6 7 8 7 8 8 8 9 10 8 7 8 6 6 6 6 7 8 8 8 10 13 11 8 8 9 10 11 9 8 8 10 10 10 10 9 7
7 3 6 12 6 14 11 2 6 6 8 7 3 2 4 4 3 3 4 9 7 5 10 11 8 5 7 7 8 10 7 8 6 6 9 9 8 7 6 5 5 7 7 7 5 3 1 1 2 3 3 3 3 3 4 5 5 5 6 7 8 8 8 9 9 9 9 10 10 8 7 8 7 6 5 5 5 6 8 8 10 12 12 10 9 9 9 9 9 9 9 10 10 9 8 7 7
5 2 7 3 14 35 15 1 10 9 9 7 -0 -2 5 5 1 4 7 9 5 5 10 8 6 7 5 8 9 7 8 8 7 6 7 9 8 6 5 4 5 6 6 5 4 1 1 1 2 3 3 4 4 4 4 5 6 6 7 8 9 8 8 10 10 9 9 11 9 7 7 8 7 6 6 6 5 6 8 10 11 12 12 11 11 10 9 9 9 9 10 9 8 8 8 7 8
2 4 9 3 34 58 24 2 5 9 10 8 2 -1 4 3 0 4 8 6 5 6 8 7 8 12 8 9 9 7 11 8 6 6 6 8 7 7 5 3 3 4 5 4 3 1 2 2 3 3 4 4 4 5 5 5 6 7 8 8 9 9 9 10 11 9 9 11 9 7 7 7 7 6 6 6 6 6 8 11 13 13 13 12 10 9 9 8 9 10 10 8 8 9 9 8 8
4 6 8 8 39 42 15 2 3 11 5 4 6 7 4 -4 3 6 4 5 5 7 8 8 9 13 8 8 9 8 11 6 6 6 5 8 6 8 5 3 3 3 5 3 3 2 2 3 3 4 4 5 5 5 6 7 7 7 7 7 8 9 11 11 10 10 9 10 8 6 7 8 8 7 7 6 6 8 9 9 11 12 12 11 9 9 9 8 9 9 9 8 8 8 8 8 6
3 8 3 9 36 24 6 2 7 12 2 4 5 7 1 -7 7 4 1 6 5 8 9 10 11 10 7 9 9 7 10 5 6 6 5 7 7 8 5 4 3 3 4 3 4 3 3 3 4 5 5 5 5 6 7 9 8 7 7 7 8 9 11 11 10 9 8 10 7 5 5 7 9 8 9 8 7 8 9 7 7 8 9 9 9 9 9 8 9 8 8 8 7 7 6 5 5
3 9 1 15 33 8 1 8 7 7 5 8 3 5 2 -2 7 -1 2 8 4 6 6 10 12 8 7 8 7 8 11 6 6 7 5 7 7 7 5 4 3 3 5 4 5 4 5 5 5 5 5 5 5 6 8 9 8 7 8 8 9 9 10 10 9 9 8 9 7 5 5 6 7 7 9 9 8 8 8 7 5 6 6 7 6 6 6 6 6 6 6 6 6 6 5 5 6
8 5 3 33 33 -0 4 13 3 5 9 6 6 6 1 3 5 -1 4 6 5 5 5 12 10 7 8 5 6 10 10 7 7 6 6 6 6 6 5 4 3 4 4 4 5 6 6 6 6 5 5 5 6 8 9 9 9 8 8 7 8 8 9 9 8 9 9 9 7 5 6 7 7 7 8 9 9 9 10 7 5 5 4 4 4 4 5 5 5 5 6 6 6 6 7 7 7
8 -0 15 49 24 -1 9 7 5 10 7 4 8 4 3 3 -3 3 4 1 8 5 6 16 13 9 8 4 7 13 11 8 8 7 7 6 6 5 5 4 4 5 4 5 6 7 7 7 6 4 5 5 6 8 9 9 8 7 7 7 8 8 7 8 8 9 9 9 8 7 6 6 6 7 7 9 9 10 10 7 5 5 5 5 5 6 6 6 6 6 7 7 7 7 8 7 8
6 -3 24 51 9 -1 10 5 10 6 3 7 3 -2 7 2 -7 7 3 4 12 4 7 13 12 11 9 7 6 11 11 8 8 8 7 6 6 5 5 5 5 5 4 6 6 6 6 7 6 6 6 5 7 7 8 8 7 6 6 8 8 7 6 7 9 9 9 9 9 9 8 7 7 7 6 8 10 10 9 7 6 5 6 7 7 8 7 7 7 8 8 8 8 8 7 7 8
7 -7 18 45 8 2 7 5 10 2 4 6 2 2 8 4 0 5 -1 8 10 2 10 10 9 9 11 11 6 10 9 7 7 6 7 6 6 5 5 4 4 5 5 6 5 6 7 7 6 7 8 6 7 6 7 7 7 5 5 11 11 8 7 8 12 12 10 9 9 9 8 9 7 7 6 8 10 11 9 6 5 6 7 8 7 7 6 7 7 8 8 8 9 9 9 8 8
7 -4 18 40 11 4 3 5 12 5 4 1 9 9 5 8 0 -0 3 7 6 5 11 9 10 10 13 11 6 9 7 7 6 6 7 7 7 5 5 4 4 5 5 6 5 7 7 6 6 7 8 7 8 6 7 7 6 7 9 15 14 11 8 9 13 12 10 9 8 8 7 8 7 6 7 8 9 10 9 7 6 6 6 7 7 7 8 8 8 8 8 9 10 10 10 10 11
7 1 18 36 11 5 2 4 11 8 5 2 13 4 1 11 -4 5 14 1 3 9 8 7 10 11 12 10 8 8 6 8 6 7 7 6 8 6 6 5 5 6 5 5 5 6 5 4 6 6 6 6 8 6 7 8 7 8 11 12 9 9 9 8 9 9 9 8 8 7 6 8 7 8 7 6 8 9 9 8 8 7 7 7 8 9 8 7 8 8 9 10 12 11 11 12 13
10 -1 12 37 13 5 2 3 10 6 5 2 7 1 0 5 -3 13 9 -6 6 9 7 6 7 10 10 8 9 9 6 7 7 8 7 6 7 5 6 5 5 6 5 6 5 5 5 5 5 6 8 6 7 7 7 8 7 7 9 9 6 9 10 9 9 9 9 8 7 7 7 8 9 10 7 5 7 9 10 10 10 10 9 9 9 9 8 8 8 8 9 10 12 12 12 12 13
9 -1 21 44 10 5 4 1 10 2 4 3 4 6 2 -0 8 17 -4 -4 10 6 9 7 7 9 6 7 7 9 8 7 7 7 8 8 6 5 5 4 5 5 5 8 6 6 5 4 5 6 7 7 7 6 6 7 6 7 8 7 6 11 13 10 11 9 8 7 7 8 8 8 7 8 8 7 7 8 10 11 12 11 10 9 8 8 8 9 9 9 10 10 11 11 12 12 12
6 2 31 44 6 7 6 1 12 2 3 4 1 5 6 4 12 10 -10 0 10 4 10 7 8 9 5 8 7 9 8 6 7 6 8 9 6 6 5 4 5 5 6 7 6 6 5 5 7 7 6 6 7 6 8 8 7 6 6 6 5 11 13 10 11 9 8 9 8 8 9 9 8 7 8 9 7 7 10 11 11 10 10 8 7 8 9 10 9 10 11 11 11 11 11 12 11
5 3 23 35 10 8 4 2 11 6 5 2 -0 6 9 5 6 4 -5 5 8 5 12 7 8 10 9 10 8 10 7 7 8 5 8 7 7 6 4 6 6 6 7 6 6 4 5 7 6 5 5 6 6 8 7 5 7 7 5 6 7 12 14 10 10 9 9 11 10 9 8 10 11 9 9 10 9 8 9 8 7 9 8 7 8 8 9 10 11 11 11 10 10 11 11 11 10
5 2 8 21 14 8 6 9 10 7 8 2 0 5 7 5 4 8 4 6 7 4 10 9 6 10 13 10 7 9 7 9 8 6 8 6 9 8 5 6 6 8 8 6 5 4 6 6 6 6 5 6 7 9 8 6 6 5 6 9 9 12 14 11 9 9 10 10 10 9 8 10 10 8 9 10 10 9 9 5 5 9 8 7 8 8 9 11 11 11 11 10 9 9 8 8 8
6 4 2 9 16 18 10 9 9 4 5 3 3 4 7 7 3 7 5 2 5 4 8 11 7 8 13 10 6 7 6 9 8 7 8 7 9 8 7 7 7 8 8 8 6 5 7 6 6 7 6 7 8 7 9 11 7 2 6 11 10 10 12 12 11 11 10 9 9 9 9 10 8 7 8 9 9 9 10 6 4 7 7 7 7 8 12 12 10 10 9 8 7 6 6 6 6
5 4 5 5 17 34 19 3 6 6 5 2 3 5 5 5 5 6 3 2 6 5 5 11 9 7 11 9 7 7 5 7 9 8 7 8 8 7 7 7 8 9 8 8 7 7 7 7 7 6 7 7 6 6 9 12 7 3 7 10 9 8 11 13 12 11 9 8 8 9 9 9 9 8 8 9 9 9 9 7 5 6 6 7 6 8 13 11 9 9 7 6 5 5 5 5 5
-0 -0 8 5 7 23 17 4 6 7 8 1 0 7 5 7 8 3 -1 2 9 6 4 10 9 7 10 7 6 7 5 7 8 8 7 8 8 7 8 7 8 10 9 8 7 7 7 7 7 6 8 8 7 8 9 10 6 5 8 8 9 10 12 13 11 9 8 7 8 11 11 11 12 10 8 9 11 10 5 1 4 7 6 7 6 8 13 11 7 6 5 4 4 5 5 5 5
0 -2 4 7 5 9 12 16 16 8 5 3 2 5 6 7 4 1 3 5 8 5 2 8 10 8 10 7 7 6 5 6 7 7 7 7 8 7 6 7 8 8 8 7 6 8 7 6 7 6 9 10 8 6 6 8 6 6 7 7 10 10 11 12 11 8 7 8 7 8 10 10 10 8 7 8 12 13 6 -2 2 8 6 6 6 8 12 10 6 5 4 4 4 4 5 5 5
1 -1 -2 1 6 7 8 23 33 18 4 4 3 2 8 8 1 3 8 3 6 8 2 6 10 7 9 8 7 7 5 6 6 8 9 6 6 7 7 6 6 7 6 7 7 7 7 6 6 6 7 9 7 4 6 7 6 5 6 8 9 10 9 9 10 8 7 7 5 6 7 8 10 8 7 7 9 11 9 5 5 7 6 6 6 9 13 9 5 5 4 4 4 4 4 4 4
1 -0 -2 -0 7 5 -1 14 29 19 6 6 2 1 11 8 0 7 10 1 4 9 4 5 9 6 10 10 7 8 6 6 7 8 10 9 7 6 7 6 4 6 5 5 7 7 7 6 6 6 6 9 6 5 6 7 7 5 7 9 7 9 9 7 8 8 7 6 4 6 9 11 12 12 11 9 9 8 8 10 8 7 7 6 5 10 13 8 5 5 4 4 4 4 4 4 4
5 2 3 1 6 3 -5 7 15 7 6 12 8 2 9 4 -1 8 8 1 2 6 5 4 7 7 9 10 7 8 6 6 7 6 8 10 10 7 5 6 5 5 5 5 6 7 7 6 7 6 5 9 9 6 4 5 7 4 6 10 8 8 8 8 7 7 7 6 6 9 12 13 13 14 14 11 11 9 9 10 9 8 7 5 6 12 12 7 5 5 5 5 5 5 5 5 4
5 3 7 3 6 1 -6 5 10 5 4 15 19 5 5 4 0 6 1 -2 6 7 5 3 6 6 7 10 8 9 7 5 6 5 6 7 9 9 6 6 6 5 5 5 6 6 7 6 6 5 4 10 13 9 5 4 6 5 6 9 8 7 7 8 8 7 8 7 8 9 11 12 11 12 13 12 11 10 10 9 9 8 6 5 8 13 10 6 6 5 5 4 4 4 4 4 5
6 3 4 2 7 2 -7 -0 4 10 9 19 33 12 4 7 2 8 2 0 11 9 6 4 5 6 6 9 7 8 9 6 6 4 5 6 8 10 8 7 6 6 5 4 6 5 6 6 5 4 3 7 12 10 7 4 3 4 5 5 7 7 6 6 5 7 9 8 8 8 9 9 9 11 11 12 11 10 10 9 8 7 6 8 12 12 6 4 5 5 4 3 3 4 4 5 5
8 6 5 -2 6 5 -3 -4 -5 7 12 23 40 15 1 8 1 6 3 1 10 7 8 7 4 6 6 7 6 7 9 6 6 5 6 6 7 9 8 8 6 5 5 4 5 5 6 6 6 6 4 5 9 9 8 6 4 4 6 6 8 10 8 6 4 5 8 9 8 7 8 8 8 10 10 11 11 11 10 8 7 7 9 12 13 9 4 4 5 4 4 4 4 4 5 6 6
5 3 8 4 7 7 3 -1 -6 6 10 14 29 12 0 6 2 7 4 2 8 5 8 9 4 5 5 6 5 6 11 10 8 7 8 6 6 8 7 8 7 5 5 5 5 5 5 5 5 7 6 6 7 8 7 6 6 6 8 9 10 10 9 7 5 4 6 8 8 8 8 9 9 10 10 11 12 11 10 9 9 10 10 11 10 7 4 4 4 4 4 4 4 5 6 7 7
5 0 5 5 5 8 8 7 -3 0 7 10 19 15 8 6 4 8 2 2 9 6 9 11 7 4 4 8 6 5 8 10 10 9 8 6 6 7 7 7 8 6 5 5 5 4 5 5 5 6 7 7 7 8 7 5 6 8 8 9 10 10 7 6 6 4 4 6 7 7 7 7 9 10 11 11 12 11 10 9 9 9 8 6 6 6 4 3 4 4 5 4 5 6 6 8 8
8 3 2 2 1 5 11 13 3 -4 1 6 11 16 15 12 12 7 -1 5 9 6 7 9 9 6 4 7 7 6 7 6 9 10 8 6 7 7 6 7 8 8 6 5 6 5 5 5 5 6 7 8 7 7 7 5 6 6 7 8 10 11 8 6 5 3 3 4 5 6 6 6 6 7 8 9 10 9 7 7 7 7 6 5 5 6 5 4 4 4 5 5 7 7 8 8 7
8 5 6 5 -1 -1 4 9 10 8 3 -1 3 12 13 14 17 3 -4 6 6 3 5 5 9 8 5 7 6 6 7 5 6 9 9 6 7 7 6 7 8 8 7 7 6 6 6 5 5 6 6 7 7 7 7 5 5 4 6 8 8 9 9 7 5 4 4 4 4 6 6 6 6 6 5 6 8 7 6 6 6 5 4 4 5 5 5 5 5 5 7 8 8 8 8 7 7
6 4 7 9 1 -0 4 3 8 17 14 3 4 12 9 11 18 3 -5 1 0 2 5 3 6 8 7 7 7 8 6 5 6 7 9 7 7 6 6 8 8 8 8 8 7 6 6 6 5 5 6 7 6 7 8 6 5 4 5 6 6 7 8 7 6 4 5 5 5 6 7 7 7 7 6 5 6 6 6 6 6 6 5 5 5 5 5 6 8 9 9 8 8 8 7 7 8
4 4 7 11 4 -1 5 7 9 16 16 5 5 14 9 9 19 7 -3 1 2 5 5 3 7 5 7 9 7 7 5 6 9 6 6 7 7 6 7 9 8 8 9 8 8 7 7 7 6 6 6 7 6 7 10 9 6 4 5 5 5 7 8 9 8 6 6 6 5 6 7 7 7 8 8 7 7 6 6 6 6 6 6 6 7 7 7 7 9 9 9 8 8 8 8 8 8
2 0 4 11 7 -4 -1 12 14 12 19 10 2 15 15 11 19 8 1 7 6 7 4 1 8 4 5 10 7 7 4 4 9 9 6 5 6 7 8 8 7 8 9 9 8 7 7 7 6 6 6 6 6 7 10 12 9 6 7 6 5 6 8 11 10 7 7 6 6 6 7 9 8 8 8 8 8 7 6 7 7 6 7 8 8 8 8 8 8 7 8 8 8 8 9 9 10
5 -3 -3 8 13 0 -8 9 17 10 21 19 1 8 13 14 20 7 5 13 3 3 5 0 5 5 5 9 7 7 5 2 6 9 9 6 5 7 7 7 8 8 9 10 10 8 8 7 6 7 7 7 6 7 10 10 8 6 6 6 5 6 7 10 11 8 7 8 7 6 7 9 9 9 9 9 9 8 7 8 8 8 8 9 10 9 8 7 7 6 6 6 7 8 9 9 10
10 1 -6 -1 12 10 -11 -7 12 8 8 14 4 -0 2 15 25 10 11 17 3 -0 5 4 5 4 5 8 7 7 6 5 6 7 11 10 7 7 6 6 7 8 8 9 10 8 7 7 7 6 7 7 7 8 10 9 5 4 5 6 7 8 7 9 10 9 8 8 8 6 7 9 8 8 8 8 9 8 8 9 8 8 8 9 9 8 7 6 5 6 5 5 5 6 7 8 8
10 7 -0 -4 5 16 2 -10 5 8 0 5 10 4 -5 4 17 16 18 16 6 5 2 3 7 6 6 5 5 7 6 7 9 8 8 8 8 10 9 6 6 7 8 8 9 8 7 7 7 7 6 7 7 8 10 9 6 4 5 5 6 8 9 8 8 9 8 8 7 6 6 7 7 7 8 7 8 8 8 9 8 7 7 7 8 6 6 5 5 6 5 4 4 4 5 6 6
7 9 9 1 -1 11 14 6 4 7 8 5 11 17 5 -3 -1 11 29 23 7 4 4 6 5 2 7 5 3 8 8 7 9 9 9 5 4 8 9 9 8 7 7 8 8 7 8 7 7 7 6 6 7 7 9 9 6 5 5 5 5 6 8 9 8 8 8 7 6 6 5 6 6 6 7 6 6 7 6 6 7 7 6 6 6 6 5 5 5 5 5 4 3 4 4 5 5
4 6 9 3 -0 1 5 13 12 14 23 13 9 18 13 7 -1 -4 27 44 22 6 9 13 5 -0 7 3 -0 7 8 7 6 8 11 7 3 4 5 8 9 8 7 7 8 7 7 7 7 8 7 7 6 6 8 9 7 5 5 4 4 6 7 8 8 6 7 7 6 6 4 4 5 5 5 5 6 6 6 5 6 5 5 5 5 6 5 4 5 4 4 4 3 3 4 4 5
4 5 7 7 11 3 -6 11 17 9 18 13 5 12 10 14 12 -4 13 40 35 19 9 5 2 2 6 3 0 5 5 5 6 8 10 8 5 3 2 6 9 9 8 7 7 7 7 7 7 7 8 8 7 6 6 8 8 6 5 5 4 5 6 6 7 6 7 7 6 5 5 4 4 4 4 4 5 6 5 5 5 4 5 5 4 4 4 4 4 4 3 4 3 3 4 4 5
6 4 3 6 13 8 -3 6 8 -1 9 9 0 8 10 9 12 6 5 15 27 25 9 9 17 9 1 1 2 4 4 4 6 7 9 9 7 5 4 5 8 8 9 9 7 6 7 8 7 7 8 8 8 7 6 6 8 8 6 5 4 4 5 5 6 6 6 6 5 5 5 4 4 4 4 4 5 6 5 4 5 4 4 5 4 4 3 4 4 4 3 3 3 3 3 4 4
4 -0 -3 -3 4 10 4 -3 -5 2 13 6 -3 8 14 7 5 7 7 6 20 26 10 12 25 13 -1 2 6 5 5 6 7 5 6 9 8 7 7 8 9 8 8 9 9 7 6 7 8 7 6 8 9 9 7 5 6 8 7 6 5 4 5 5 5 6 5 5 5 5 5 5 4 5 5 4 5 6 6 6 6 5 4 5 6 5 4 4 4 3 3 4 3 3 3 3 4
1 -3 -1 1 5 10 10 -1 -6 10 18 3 -3 6 8 8 7 7 7 4 11 23 14 7 13 7 1 7 9 6 4 5 7 5 5 8 8 7 8 8 9 9 7 7 8 9 8 6 7 8 7 7 8 9 9 7 5 7 8 7 6 5 5 5 4 4 4 5 5 5 4 4 4 4 5 5 5 6 7 7 8 7 6 7 6 6 5 5 6 5 4 5 4 4 4 4 4
8 0 -2 5 9 7 12 7 -6 8 20 2 -3 2 0 4 7 5 6 1 1 13 15 12 13 7 5 11 8 3 5 5 2 2 5 7 5 3 5 7 9 10 9 7 5 7 9 7 5 6 7 7 7 9 9 8 6 6 7 7 7 6 6 6 5 4 4 3 4 4 4 4 4 5 5 5 5 6 6 6 7 7 8 8 7 7 7 7 7 7 7 7 7 6 6 6 5
16 7 -3 2 10 6 9 4 -13 2 24 10 -1 3 0 -1 2 4 6 4 0 1 2 8 15 14 15 20 14 5 7 8 2 0 5 8 6 4 4 5 7 9 10 10 8 6 7 8 7 6 6 7 7 9 9 9 8 6 6 8 7 6 6 6 6 5 4 3 3 4 4 5 5 5 6 5 6 6 6 6 7 7 8 9 9 9 9 9 9 8 8 9 8 8 8 8 8
15 13 2 -1 8 8 9 9 -1 6 25 19 7 5 5 4 4 2 2 4 5 1 -2 -1 6 12 14 13 11 10 9 9 8 3 1 5 7 7 6 6 5 5 7 11 12 10 8 8 9 7 5 6 7 9 9 9 10 8 7 7 7 7 6 6 7 6 5 5 5 5 5 5 7 7 6 6 7 8 8 8 8 8 8 8 9 9 9 9 9 8 8 8 8 8 8 9 9
9 13 4 -4 5 10 6 9 11 8 12 17 13 6 5 6 4 2 1 3 4 1 2 2 -1 6 14 10 6 9 11 10 12 11 2 -3 1 4 2 2 6 4 4 7 8 10 10 9 12 11 8 6 6 8 9 9 9 9 8 7 6 6 5 6 7 6 6 6 5 4 4 5 7 8 7 7 9 9 9 9 8 7 7 7 7 8 9 9 8 8 8 7 6 6 8 9 10
1 4 5 -4 -0 11 6 -3 3 6 3 6 5 3 8 8 7 8 7 11 13 9 10 11 6 7 15 18 13 10 12 10 13 20 14 2 7 14 4 -0 6 3 2 4 3 6 10 8 9 9 8 8 6 6 8 9 9 9 9 9 8 6 5 4 5 5 5 6 5 4 3 4 6 7 8 7 9 10 8 7 7 6 5 6 6 6 6 7 7 7 7 6 6 6 6 8 10
7 1 7 3 -4 7 9 -4 -2 8 7 6 3 -0 1 2 5 7 7 16 20 13 11 12 10 8 4 7 11 7 6 9 12 17 15 7 11 14 7 7 11 5 2 3 1 3 7 9 10 8 7 7 7 6 5 6 8 9 8 9 9 9 8 6 5 5 4 5 5 4 2 3 5 6 7 7 8 8 7 6 5 5 6 5 6 6 5 5 5 6 6 5 5 5 6 6 8
17 4 6 11 4 5 7 -1 -0 3 2 11 16 8 -2 -4 3 6 2 5 3 -2 3 5 3 9 7 3 6 3 1 8 9 5 5 6 6 6 6 10 12 9 8 6 1 2 3 4 8 11 10 8 8 8 8 6 5 6 7 7 8 9 10 10 9 6 5 5 5 5 3 2 4 6 6 7 8 7 5 5 5 5 6 6 7 7 6 6 6 6 6 6 5 5 5 6 7
13 6 8 9 4 2 2 -4 -1 1 -3 1 9 15 15 5 3 6 2 5 11 7 7 5 -2 1 7 7 7 7 5 7 5 3 4 2 -2 -0 4 6 7 9 12 11 7 8 9 6 5 6 6 6 7 6 6 7 6 5 7 7 6 7 7 9 11 10 8 6 5 5 5 3 2 5 8 7 7 7 5 5 6 5 6 7 8 8 8 8 8 7 7 6 6 6 5 5 7
Height
5899 5898 5898 5897 5897 5898 5897 5897 5897 5897 5898 5899 5899 5899 5899 5900 5901 5902 5901 5902 5902 5902 5903 5903 5902 5904 5904 5902 5903 5904 5905 5906 5905 5906 5907 5907 5907 5907 5907 5907 5907 5906 5906 5906 5907 5907 5907 5908 5908 5909 5909 5909 5909 5910 5911 5911 5911 5912 5912 5912 5912 5912 5913 5913 5913 5912 5912 5912 5911 5911 5911 5911 5910 5910 5910 5911 5911 5911 5910 5910 5910 5910 5910 5910 5911 5911 5911 5911 5911 5912 5912 5913 5915 5916 5916 5916 5916
5899 5898 5898 5897 5898 5898 5897 5897 5897 5897 5899 5899 5898 5899 5900 5901 5902 5902 5902 5902 5903 5903 5903 5903 5903 5904 5904 5903 5904 5905 5906 5907 5906 5906 5907 5908 5909 5908 5908 5908 5908 5908 5907 5907 5908 5908 5908 5909 5910 5910 5910 5910 5911 5912 5912 5912 5912 5913 5913 5913 5913 5913 5914 5913 5913 5913 5912 5912 5912 5911 5911 5911 5911 5911 5911 5911 5911 5911 5911 5910 5910 5910 5910 5911 5911 5911 5911 5911 5912 5912 5913 5914 5915 5916 5916 5916 5916
5899 5898 5898 5898 5898 5897 5897 5898 5897 5897 5898 5899 5899 5900 5900 5901 5902 5903 5904 5903 5904 5904 5904 5905 5904 5906 5906 5904 5905 5906 5907 5908 5908 5907 5907 5908 5909 5910 5909 5909 5909 5909 5908 5908 5909 5909 5909 5910 5911 5912 5912 5912 5913 5913 5914 5913 5914 5914 5914 5914 5914 5914 5914 5914 5913 5913 5912 5912 5912 5911 5911 5911 5911 5911 5911 5912 5912 5911 5911 5911 5911 5911 5911 5911 5912 5912 5912 5912 5912 5913 5913 5915 5916 5916 5916 5916 5917
5899 5898 5898 5898 5898 5897 5896 5896 5897 5898 5899 5899 5899 5900 5901 5901 5902 5903 5905 5904 5904 5905 5905 5906 5906 5906 5906 5906 5906 5907 5908 5908 5909 5907 5907 5909 5910 5911 5911 5910 5911 5910 5910 5910 5910 5910 5911 5912 5913 5913 5913 5914 5914 5915 5915 5915 5915 5915 5915 5915 5915 5915 5915 5914 5913 5913 5913 5912 5912 5912 5912 5912 5912 5912 5912 5912 5912 5912 5912 5912 5912 5912 5912 5912 5912 5912 5913 5913 5913 5914 5915 5916 5916 5916 5917 5917 5917
5899 5898 5898 5898 5898 5897 5896 5895 5896 5898 5899 5899 5900 5901 5902 5902 5903 5904 5905 5905 5905 5906 5906 5907 5907 5907 5907 5907 5907 5907 5908 5909 5910 5907 5907 5912 5912 5912 5912 5912 5912 5912 5911 5911 5911 5912 5912 5913 5914 5915 5915 5915 5916 5916 5916 5916 5916 5916 5916 5916 5916 5915 5915 5915 5914 5914 5913 5913 5913 5913 5913 5913 5912 5912 5913 5913 5913 5913 5913 5914 5914 5913 5913 5913 5912 5913 5913 5914 5914 5915 5915 5916 5917 5917 5917 5918 5918
5899 5899 5898 5898 5898 5898 5898 5896 5896 5898 5899 5899 5900 5902 5903 5903 5904 5905 5905 5906 5906 5906 5906 5907 5907 5907 5908 5909 5908 5908 5907 5909 5911 5908 5908 5913 5914 5913 5914 5914 5913 5913 5912 5912 5912 5913 5914 5915 5916 5916 5916 5916 5917 5917 5917 5917 5917 5917 5916 5916 5916 5916 5916 5916 5915 5914 5914 5914 5914 5914 5914 5914 5913 5914 5914 5914 5914 5914 5915 5915 5915 5914 5914 5914 5913 5914 5914 5915 5915 5915 5916 5917 5917 5917 5918 5918 5919
5899 5899 5898 5898 5898 5898 5898 5897 5897 5898 5899 5900 5901 5903 5904 5905 5904 5905 5906 5906 5907 5907 5907 5907 5908 5908 5909 5909 5909 5909 5908 5909 5910 5908 5910 5914 5915 5914 5914 5915 5914 5914 5913 5914 5914 5915 5916 5916 5917 5917 5917 5918 5918 5918 5918 5918 5917 5917 5917 5917 5918 5918 5917 5917 5916 5915 5915 5915 5915 5915 5915 5915 5915 5915 5915 5915 5915 5915 5915 5915 5915 5915 5915 5915 5914 5915 5915 5915 5915 5916 5917 5917 5918 5918 5918 5919 5920
5899 5898 5898 5897 5897 5897 5897 5898 5898 5899 5900 5901 5902 5903 5904 5905 5904 5905 5906 5907 5907 5907 5908 5908 5909 5909 5910 5910 5910 5910 5910 5911 5910 5909 5911 5914 5915 5915 5915 5915 5915 5915 5915 5915 5916 5916 5917 5917 5918 5918 5919 5919 5919 5919 5919 5918 5918 5918 5918 5919 5919 5919 5918 5918 5917 5916 5916 5916 5916 5916 5916 5916 5916 5917 5917 5917 5916 5916 5916 5916 5916 5916 5916 5916 5915 5915 5916 5916 5916 5917 5918 5918 5918 5919 5919 5920 5921
5899 5898 5897 5897 5896 5895 5896 5897 5898 5899 5900 5901 5902 5902 5903 5905 5905 5906 5907 5906 5907 5908 5909 5909 5910 5910 5910 5911 5911 5911 5912 5912 5910 5911 5913 5914 5915 5916 5916 5916 5915 5916 5916 5917 5917 5918 5918 5919 5919 5920 5920 5920 5920 5919 5919 5919 5919 5920 5920 5920 5920 5920 5919 5918 5918 5917 5916 5916 5917 5917 5917 5917 5918 5918 5918 5918 5918 5918 5917 5917 5917 5917 5917 5916 5916 5916 5916 5917 5918 5918 5919 5919 5919 5920 5920 5921 5922
5899 5898 5897 5896 5894 5893 5895 5896 5898 5900 5901 5901 5902 5903 5904 5905 5906 5907 5907 5907 5908 5909 5910 5910 5911 5911 5911 5911 5912 5912 5913 5913 5911 5912 5914 5915 5916 5917 5917 5917 5916 5916 5917 5918 5919 5919 5920 5920 5921 5921 5921 5921 5920 5920 5920 5920 5921 5922 5922 5921 5921 5921 5920 5919 5919 5918 5917 5917 5917 5918 5919 5919 5919 5919 5919 5920 5919 5919 5919 5918 5918 5918 5918 5917 5917 5918 5918 5918 5919 5920 5920 5920 5921 5921 5921 5922 5922
5899 5898 5897 5896 5895 5894 5895 5897 5898 5900 5901 5902 5902 5903 5904 5906 5907 5907 5907 5908 5909 5909 5910 5911 5911 5912 5912 5912 5913 5913 5914 5913 5912 5913 5915 5916 5917 5918 5918 5918 5917 5917 5918 5919 5920 5920 5921 5921 5922 5922 5922 5922 5922 5922 5922 5922 5923 5923 5922 5922 5921 5921 5920 5920 5919 5919 5918 5918 5919 5919 5920 5920 5920 5920 5920 5920 5920 5920 5920 5919 5919 5919 5919 5919 5919 5919 5919 5920 5920 5921 5921 5922 5922 5922 5923 5923 5923
5899 5898 5897 5896 5896 5896 5897 5897 5899 5900 5901 5902 5902 5903 5905 5906 5907 5907 5908 5909 5909 5910 5910 5911 5912 5912 5912 5913 5914 5915 5915 5914 5914 5914 5916 5917 5918 5918 5919 5919 5919 5919 5919 5920 5921 5921 5922 5922 5923 5923 5923 5923 5923 5923 5924 5924 5924 5923 5923 5922 5921 5921 5920 5920 5920 5920 5919 5920 5920 5921 5921 5921 5921 5921 5921 5921 5921 5921 5921 5920 5920 5920 5920 5921 5921 5921 5921 5921 5922 5922 5923 5923 5923 5923 5924 5924 5925
5898 5898 5898 5897 5897 5897 5898 5898 5899 5900 5901 5902 5903 5904 5906 5906 5907 5907 5908 5909 5909 5910 5911 5912 5912 5913 5913 5914 5915 5916 5916 5916 5915 5915 5917 5918 5919 5919 5919 5920 5920 5920 5921 5921 5922 5922 5923 5923 5924 5924 5924 5925 5925 5925 5925 5925 5925 5924 5923 5922 5921 5921 5921 5921 5921 5921 5921 5921 5922 5922 5922 5923 5923 5922 5922 5922 5922 5922 5922 5922 5922 5922 5922 5922 5923 5923 5923 5923 5923 5924 5924 5925 5925 5925 5925 5925 5926
5898 5898 5897 5896 5897 5897 5898 5899 5900 5901 5901 5902 5903 5905 5906 5906 5908 5907 5908 5910 5910 5910 5911 5912 5912 5913 5913 5914 5916 5917 5917 5917 5917 5917 5918 5919 5919 5920 5920 5920 5921 5921 5922 5922 5923 5924 5924 5924 5925 5925 5926 5926 5926 5926 5926 5926 5925 5924 5924 5923 5922 5922 5922 5922 5922 5922 5922 5923 5923 5923 5924 5924 5924 5924 5923 5923 5923 5923 5923 5923 5923 5924 5924 5924 5924 5925 5925 5925 5925 5925 5926 5926 5926 5926 5926 5926 5927
5898 5898 5897 5896 5896 5897 5898 5900 5901 5901 5902 5903 5904 5906 5906 5907 5909 5908 5909 5911 5911 5911 5912 5913 5913 5913 5914 5914 5915 5918 5918 5918 5918 5918 5918 5919 5920 5920 5920 5921 5921 5922 5923 5923 5924 5925 5925 5925 5926 5926 5927 5927 5927 5927 5927 5926 5926 5925 5925 5924 5924 5923 5923 5923 5923 5923 5923 5924 5924 5925 5925 5925 5925 5925 5925 5925 5924 5924 5925 5925 5925 5925 5926 5926 5926 5926 5927 5927 5927 5927 5927 5927 5927 5927 5927 5927 5928
5898 5898 5898 5897 5896 5897 5898 5901 5902 5902 5903 5904 5904 5906 5906 5908 5909 5908 5910 5911 5911 5912 5912 5913 5914 5915 5916 5915 5915 5918 5919 5919 5919 5919 5919 5920 5921 5921 5921 5922 5922 5923 5924 5924 5925 5925 5926 5926 5927 5927 5928 5928 5928 5927 5927 5927 5926 5926 5925 5925 5925 5924 5924 5924 5924 5924 5924 5925 5925 5926 5926 5926 5926 5926 5926 5926 5926 5926 5927 5927 5927 5927 5927 5928 5928 5928 5928 5928 5929 5929 5928 5928 5928 5928 5928 5929 5929
5898 5898 5899 5898 5897 5897 5898 5901 5902 5902 5904 5904 5904 5905 5907 5909 5909 5909 5910 5911 5912 5912 5912 5913 5914 5915 5916 5916 5916 5918 5919 5919 5919 5919 5920 5921 5921 5922 5922 5923 5923 5924 5924 5925 5926 5926 5927 5927 5928 5928 5929 5929 5928 5928 5928 5927 5927 5927 5926 5926 5926 5926 5926 5926 5926 5926 5926 5926 5926 5927 5927 5927 5927 5927 5927 5927 5927 5928 5928 5929 5929 5929 5929 5929 5930 5930 5930 5930 5930 5930 5930 5930 5929 5929 5930 5930 5931
5899 5899 5899 5899 5898 5898 5898 5900 5901 5901 5903 5904 5905 5906 5907 5910 5910 5910 5910 5911 5912 5913 5913 5913 5915 5916 5917 5917 5917 5918 5919 5919 5919 5920 5921 5921 5922 5922 5923 5923 5924 5924 5925 5926 5927 5927 5928 5928 5928 5929 5929 5929 5929 5929 5929 5928 5928 5928 5928 5927 5927 5927 5927 5927 5927 5927 5927 5927 5927 5928 5928 5928 5928 5928 5928 5929 5929 5929 5930 5930 5931 5931 5931 5931 5931 5932 5932 5931 5931 5931 5931 5931 5930 5930 5931 5932 5932
5899 5898 5898 5898 5898 5898 5898 5900 5900 5901 5903 5903 5904 5906 5908 5910 5910 5911 5912 5912 5912 5913 5913 5914 5915 5917 5918 5918 5919 5919 5920 5920 5920 5920 5921 5922 5922 5922 5923 5924 5925 5925 5926 5926 5927 5928 5928 5929 5929 5930 5930 5930 5930 5930 5930 5930 5930 5930 5929 5929 5929 5929 5929 5928 5928 5928 5928 5928 5928 5929 5929 5929 5930 5930 5930 5930 5931 5931 5931 5932 5932 5933 5933 5933 5933 5934 5933 5933 5933 5933 5932 5932 5932 5932 5933 5933 5934
5898 5898 5898 5898 5898 5898 5898 5899 5900 5900 5902 5903 5904 5906 5908 5909 5910 5911 5913 5913 5913 5913 5913 5914 5916 5917 5918 5919 5920 5921 5921 5921 5921 5921 5922 5923 5923 5923 5923 5924 5925 5926 5927 5927 5928 5928 5929 5930 5930 5930 5931 5931 5931 5931 5931 5931 5931 5931 5931 5931 5931 5930 5930 5930 5930 5930 5930 5930 5930 5930 5931 5931 5931 5931 5932 5932 5932 5932 5933 5934 5934 5935 5935 5935 5935 5935 5935 5935 5934 5934 5934 5933 5933 5934 5934 5935 5935
5898 5898 5897 5897 5897 5898 5898 5899 5900 5901 5901 5902 5904 5906 5907 5909 5909 5910 5913 5914 5914 5913 5913 5914 5916 5917 5918 5919 5920 5921 5921 5921 5921 5922 5922 5923 5924 5924 5924 5925 5926 5927 5927 5928 5928 5929 5930 5931 5931 5931 5931 5932 5932 5932 5932 5932 5932 5932 5932 5932 5932 5932 5932 5932 5932 5932 5932 5932 5932 5932 5932 5932 5933 5933 5933 5934 5934 5934 5935 5936 5936 5937 5937 5937 5937 5937 5937 5937 5936 5936 5935 5935 5935 5935 5936 5936 5937
5897 5897 5897 5896 5897 5898 5899 5900 5903 5903 5901 5902 5904 5905 5907 5908 5909 5910 5912 5914 5914 5913 5913 5915 5916 5917 5918 5919 5920 5921 5921 5922 5922 5922 5923 5924 5924 5925 5925 5926 5927 5928 5928 5929 5929 5930 5931 5932 5932 5932 5932 5933 5933 5934 5934 5933 5933 5933 5933 5933 5933 5933 5933 5933 5933 5934 5934 5934 5934 5934 5934 5934 5934 5935 5935 5936 5936 5936 5937 5938 5939 5939 5939 5938 5938 5938 5938 5938 5938 5938 5937 5937 5937 5937 5938 5938 5939
5897 5898 5897 5897 5897 5899 5901 5901 5903 5905 5904 5903 5903 5904 5906 5908 5908 5910 5911 5913 5914 5913 5914 5915 5916 5917 5918 5919 5920 5921 5922 5922 5922 5923 5923 5924 5925 5925 5926 5927 5928 5929 5929 5930 5930 5930 5931 5933 5933 5933 5934 5934 5934 5935 5935 5935 5935 5935 5934 5934 5934 5934 5934 5935 5935 5935 5935 5936 5935 5935 5935 5936 5936 5937 5937 5938 5938 5939 5939 5940 5941 5941 5941 5940 5940 5940 5940 5940 5940 5940 5939 5939 5939 5940 5941 5941 5942
5897 5898 5898 5897 5897 5899 5901 5900 5900 5905 5907 5904 5904 5905 5906 5907 5909 5910 5911 5913 5914 5914 5914 5915 5917 5918 5919 5919 5920 5922 5922 5923 5923 5923 5924 5925 5926 5926 5927 5928 5929 5929 5930 5931 5931 5932 5932 5933 5934 5935 5935 5935 5935 5936 5936 5936 5936 5936 5936 5935 5935 5936 5936 5936 5936 5937 5937 5937 5937 5937 5937 5938 5938 5938 5939 5939 5939 5940 5941 5942 5942 5942 5942 5942 5942 5942 5943 5942 5942 5942 5942 5942 5942 5942 5943 5944 5945
5898 5898 5898 5898 5898 5898 5900 5901 5901 5905 5906 5903 5904 5905 5906 5907 5909 5911 5912 5913 5914 5915 5915 5916 5917 5918 5919 5920 5921 5922 5923 5923 5924 5924 5925 5926 5926 5927 5928 5929 5930 5931 5931 5932 5932 5933 5934 5934 5935 5936 5937 5937 5937 5937 5937 5936 5937 5937 5937 5936 5936 5937 5937 5937 5937 5938 5939 5939 5939 5939 5939 5940 5940 5940 5940 5940 5941 5941 5942 5943 5943 5944 5944 5944 5945 5945 5945 5944 5944 5945 5945 5945 5944 5945 5946 5947 5948
5897 5898 5898 5898 5898 5898 5899 5901 5902 5905 5906 5903 5904 5905 5906 5907 5909 5911 5912 5913 5914 5915 5916 5917 5918 5918 5919 5921 5922 5922 5923 5924 5924 5925 5925 5926 5927 5928 5929 5930 5931 5932 5932 5933 5934 5935 5935 5936 5937 5938 5938 5938 5938 5938 5937 5937 5938 5938 5938 5938 5938 5938 5938 5939 5939 5939 5940 5941 5941 5941 5941 5941 5941 5942 5942 5942 5942 5943 5943 5944 5945 5945 5946 5946 5947 5947 5946 5946 5946 5947 5948 5947 5947 5948 5949 5950 5951
5897 5898 5898 5898 5898 5899 5900 5901 5900 5902 5904 5903 5903 5905 5906 5907 5908 5910 5912 5913 5914 5915 5916 5917 5919 5919 5920 5921 5922 5923 5924 5925 5925 5925 5926 5927 5928 5929 5930 5931 5932 5933 5934 5935 5935 5936 5937 5938 5938 5939 5939 5939 5939 5939 5939 5939 5939 5939 5939 5939 5939 5939 5940 5940 5941 5941 5942 5942 5942 5943 5943 5943 5943 5943 5943 5943 5943 5944 5945 5946 5946 5947 5947 5948 5948 5948 5948 5948 5949 5950 5950 5950 5950 5950 5951 5952 5953
5896 5896 5898 5898 5899 5899 5901 5901 5899 5900 5902 5902 5904 5905 5906 5907 5908 5910 5912 5913 5914 5915 5916 5918 5919 5921 5921 5922 5923 5924 5924 5925 5925 5926 5926 5927 5928 5929 5931 5932 5933 5934 5935 5936 5937 5938 5938 5939 5939 5940 5940 5940 5940 5940 5940 5940 5940 5941 5941 5940 5941 5941 5941 5942 5942 5943 5943 5943 5944 5945 5945 5945 5945 5945 5944 5944 5945 5945 5946 5947 5948 5949 5949 5949 5950 5950 5950 5951 5952 5952 5953 5953 5953 5953 5954 5954 5955
5895 5895 5897 5898 5899 5900 5901 5901 5899 5899 5901 5903 5905 5906 5906 5907 5908 5909 5911 5912 5913 5915 5916 5918 5920 5921 5922 5923 5924 5925 5925 5926 5927 5927 5928 5928 5929 5930 5931 5933 5934 5935 5936 5937 5938 5939 5940 5940 5941 5941 5941 5942 5941 5941 5941 5941 5942 5942 5942 5942 5942 5943 5943 5943 5943 5944 5944 5945 5946 5947 5947 5946 5946 5945 5945 5945 5946 5947 5948 5948 5949 5950 5950 5950 5951 5952 5952 5953 5954 5955 5955 5955 5955 5956 5956 5957 5957
5894 5895 5896 5897 5898 5899 5900 5900 5900 5900 5901 5902 5904 5906 5907 5908 5909 5909 5910 5912 5914 5915 5916 5918 5920 5921 5923 5923 5925 5925 5926 5927 5928 5929 5929 5930 5930 5931 5932 5934 5935 5936 5937 5938 5939 5940 5941 5942 5942 5943 5943 5943 5943 5942 5942 5943 5943 5943 5944 5944 5944 5944 5944 5945 5945 5945 5946 5946 5947 5948 5948 5947 5946 5946 5946 5946 5947 5948 5949 5949 5950 5951 5951 5952 5953 5954 5955 5956 5956 5957 5957 5957 5958 5958 5959 5959 5959
5892 5894 5895 5896 5898 5899 5899 5900 5901 5901 5901 5901 5903 5905 5907 5908 5909 5909 5910 5912 5914 5915 5916 5918 5920 5921 5923 5924 5925 5926 5927 5928 5929 5929 5930 5931 5932 5932 5933 5934 5935 5936 5937 5938 5939 5940 5941 5943 5944 5944 5944 5944 5944 5944 5944 5944 5944 5945 5945 5945 5945 5945 5945 5946 5946 5947 5947 5947 5948 5948 5949 5948 5948 5948 5947 5947 5948 5949 5950 5951 5951 5952 5953 5955 5955 5956 5957 5958 5958 5959 5959 5959 5960 5960 5960 5960 5961
5891 5893 5895 5897 5898 5899 5899 5899 5900 5901 5901 5901 5902 5904 5906 5907 5908 5909 5911 5913 5915 5915 5916 5918 5920 5921 5922 5924 5925 5926 5928 5928 5929 5930 5930 5931 5932 5933 5934 5934 5935 5936 5937 5938 5939 5940 5942 5943 5944 5945 5946 5946 5946 5945 5945 5945 5945 5946 5947 5947 5946 5946 5946 5947 5947 5947 5947 5948 5948 5949 5949 5950 5949 5949 5949 5949 5950 5950 5951 5952 5953 5954 5955 5957 5958 5958 5959 5960 5960 5960 5960 5961 5961 5961 5961 5962 5962
5890 5893 5895 5896 5898 5899 5899 5899 5900 5901 5901 5900 5901 5903 5905 5906 5908 5909 5911 5913 5915 5916 5916 5918 5919 5921 5922 5923 5925 5926 5928 5928 5929 5930 5931 5931 5932 5933 5934 5935 5936 5937 5937 5938 5939 5940 5942 5943 5945 5946 5947 5947 5947 5947 5947 5946 5946 5947 5948 5948 5948 5948 5948 5948 5948 5948 5948 5949 5950 5950 5950 5950 5950 5950 5951 5951 5951 5951 5952 5953 5955 5956 5958 5959 5959 5960 5961 5961 5961 5962 5962 5962 5962 5962 5962 5962 5963
5890 5892 5894 5895 5897 5899 5899 5899 5900 5901 5900 5899 5900 5903 5905 5907 5908 5910 5912 5913 5915 5916 5917 5918 5919 5920 5922 5923 5924 5926 5927 5928 5929 5930 5931 5932 5933 5934 5934 5935 5936 5937 5938 5938 5939 5940 5941 5943 5945 5946 5947 5947 5948 5947 5947 5948 5948 5949 5949 5949 5950 5950 5949 5949 5949 5949 5950 5951 5951 5952 5951 5951 5951 5952 5952 5953 5953 5954 5955 5956 5957 5959 5959 5960 5961 5961 5962 5962 5962 5963 5963 5963 5963 5963 5963 5963 5964
5888 5890 5893 5894 5895 5897 5898 5898 5899 5900 5899 5899 5901 5903 5905 5906 5907 5909 5911 5913 5914 5916 5917 5918 5919 5920 5921 5923 5924 5925 5927 5928 5929 5930 5930 5931 5933 5934 5935 5936 5936 5937 5938 5938 5939 5940 5941 5942 5944 5946 5946 5947 5948 5948 5948 5949 5950 5950 5950 5950 5951 5951 5951 5951 5951 5952 5952 5953 5954 5954 5954 5954 5954 5954 5954 5956 5956 5957 5958 5959 5960 5960 5960 5961 5962 5962 5963 5963 5963 5964 5964 5964 5964 5964 5964 5965 5965
5885 5888 5890 5892 5894 5895 5897 5897 5898 5899 5899 5899 5901 5903 5904 5905 5906 5908 5911 5912 5914 5916 5917 5918 5919 5920 5921 5922 5924 5925 5927 5928 5929 5930 5930 5931 5932 5934 5935 5936 5937 5938 5939 5939 5939 5940 5941 5942 5944 5946 5946 5947 5948 5948 5948 5949 5950 5951 5951 5952 5952 5952 5952 5952 5953 5954 5955 5955 5956 5957 5957 5957 5957 5957 5957 5958 5959 5960 5960 5960 5961 5961 5961 5962 5963 5963 5963 5964 5964 5964 5964 5965 5965 5965 5965 5966 5966
5884 5887 5888 5891 5892 5894 5896 5896 5897 5898 5898 5899 5901 5902 5904 5905 5907 5908 5910 5912 5914 5916 5917 5918 5920 5920 5921 5922 5923 5925 5926 5927 5929 5930 5930 5931 5932 5933 5934 5936 5937 5938 5939 5940 5940 5940 5941 5942 5944 5945 5947 5947 5948 5948 5949 5949 5949 5950 5951 5952 5952 5952 5953 5954 5954 5955 5956 5957 5957 5958 5958 5958 5959 5959 5959 5960 5961 5961 5961 5961 5962 5962 5962 5963 5964 5964 5964 5964 5965 5965 5965 5966 5966 5966 5966 5966 5967
5883 5886 5887 5889 5891 5892 5893 5894 5895 5896 5896 5897 5899 5901 5902 5904 5906 5907 5908 5910 5913 5915 5917 5918 5919 5920 5920 5922 5923 5924 5926 5927 5928 5929 5930 5931 5932 5933 5934 5936 5937 5938 5939 5940 5941 5941 5941 5942 5943 5945 5947 5948 5949 5949 5949 5949 5949 5950 5951 5951 5952 5952 5953 5954 5955 5956 5957 5958 5958 5959 5959 5959 5960 5960 5960 5961 5961 5962 5962 5962 5962 5963 5963 5964 5964 5965 5965 5965 5965 5966 5966 5967 5967 5967 5967 5968 5968
5881 5883 5886 5888 5890 5891 5892 5893 5895 5897 5896 5896 5898 5900 5901 5902 5904 5905 5907 5909 5911 5914 5916 5917 5918 5919 5920 5922 5923 5924 5926 5927 5928 5929 5930 5931 5932 5933 5934 5936 5937 5938 5939 5940 5941 5941 5942 5943 5943 5945 5946 5948 5950 5950 5950 5950 5950 5950 5951 5952 5952 5953 5954 5955 5956 5957 5958 5958 5959 5959 5959 5960 5960 5960 5961 5961 5961 5962 5962 5963 5963 5963 5964 5964 5965 5965 5965 5966 5966 5967 5967 5968 5968 5968 5968 5969 5970
5879 5882 5884 5887 5889 5890 5891 5892 5895 5897 5897 5895 5897 5899 5900 5902 5904 5905 5906 5908 5910 5913 5915 5915 5917 5918 5919 5921 5923 5924 5926 5927 5928 5929 5930 5931 5932 5933 5934 5935 5937 5938 5939 5940 5941 5941 5942 5943 5943 5945 5946 5947 5949 5951 5952 5952 5952 5952 5952 5953 5953 5954 5955 5956 5957 5958 5958 5958 5958 5959 5959 5960 5960 5960 5961 5961 5962 5962 5963 5963 5964 5964 5965 5965 5965 5966 5966 5966 5967 5967 5968 5969 5969 5969 5970 5970 5970
5878 5880 5883 5886 5887 5889 5890 5892 5894 5895 5895 5895 5896 5898 5900 5901 5903 5904 5905 5907 5909 5912 5913 5914 5916 5918 5918 5920 5922 5923 5925 5926 5928 5928 5930 5931 5932 5933 5934 5935 5936 5937 5938 5940 5940 5941 5942 5943 5943 5944 5946 5947 5949 5950 5952 5953 5953 5953 5954 5954 5955 5956 5957 5957 5958 5959 5958 5958 5959 5959 5959 5959 5960 5960 5961 5962 5962 5963 5963 5963 5964 5964 5965 5965 5966 5966 5967 5967 5967 5968 5968 5969 5971 5971 5971 5971 5971
5876 5879 5881 5884 5886 5887 5890 5892 5893 5894 5894 5895 5895 5897 5898 5899 5902 5903 5904 5906 5908 5910 5912 5913 5915 5917 5918 5919 5921 5922 5924 5926 5927 5928 5929 5931 5932 5933 5934 5935 5936 5937 5938 5940 5940 5941 5942 5943 5944 5945 5946 5947 5948 5949 5951 5952 5953 5954 5954 5955 5956 5957 5957 5958 5959 5959 5959 5959 5959 5959 5959 5960 5960 5961 5962 5962 5963 5963 5964 5964 5964 5965 5965 5966 5966 5967 5967 5967 5968 5969 5970 5971 5972 5972 5972 5972 5972
5874 5878 5881 5882 5884 5886 5890 5891 5891 5892 5893 5894 5894 5895 5897 5898 5900 5902 5903 5905 5907 5909 5910 5912 5915 5916 5917 5919 5920 5922 5923 5925 5927 5929 5930 5931 5932 5933 5934 5935 5936 5937 5938 5939 5941 5941 5942 5943 5944 5945 5946 5947 5948 5949 5950 5951 5952 5953 5954 5955 5956 5956 5957 5958 5958 5959 5960 5960 5960 5960 5960 5960 5961 5962 5962 5963 5963 5964 5964 5965 5965 5966 5966 5966 5967 5967 5968 5968 5969 5970 5971 5971 5972 5973 5973 5973 5974
5873 5876 5879 5880 5883 5886 5889 5889 5888 5890 5891 5893 5894 5895 5897 5898 5900 5902 5903 5904 5906 5907 5909 5911 5914 5916 5917 5918 5920 5921 5923 5924 5927 5929 5930 5931 5932 5933 5934 5934 5935 5937 5938 5939 5940 5941 5942 5943 5944 5945 5946 5947 5948 5949 5950 5951 5952 5952 5953 5954 5955 5956 5957 5957 5958 5959 5960 5961 5961 5962 5961 5961 5962 5962 5963 5964 5964 5965 5965 5966 5966 5967 5967 5967 5968 5968 5969 5970 5970 5971 5971 5972 5972 5973 5974 5974 5975
5871 5873 5876 5880 5882 5885 5886 5886 5887 5889 5890 5892 5893 5894 5896 5897 5899 5900 5901 5902 5903 5905 5908 5911 5913 5915 5917 5918 5919 5921 5923 5924 5926 5928 5930 5931 5931 5932 5934 5934 5935 5936 5937 5939 5940 5941 5942 5943 5944 5945 5945 5946 5947 5949 5950 5951 5951 5952 5953 5954 5955 5956 5957 5958 5958 5959 5960 5961 5962 5962 5962 5962 5962 5963 5963 5964 5965 5965 5966 5966 5967 5968 5968 5968 5969 5969 5970 5971 5971 5972 5972 5973 5973 5974 5974 5975 5976
5869 5871 5875 5878 5880 5882 5884 5885 5886 5888 5889 5890 5891 5893 5894 5896 5898 5899 5899 5900 5901 5904 5907 5910 5912 5914 5916 5917 5919 5920 5922 5923 5925 5927 5929 5930 5931 5932 5933 5934 5935 5936 5937 5939 5940 5941 5942 5943 5944 5945 5946 5946 5947 5948 5950 5951 5951 5952 5953 5954 5955 5956 5957 5958 5959 5959 5960 5961 5962 5963 5963 5963 5964 5964 5964 5965 5965 5966 5966 5967 5967 5968 5969 5969 5970 5970 5971 5971 5972 5972 5973 5974 5974 5975 5975 5976 5976
5867 5869 5873 5875 5877 5880 5882 5883 5884 5885 5886 5888 5889 5891 5892 5894 5896 5898 5898 5899 5900 5902 5905 5908 5911 5914 5915 5917 5918 5920 5921 5923 5924 5926 5928 5929 5930 5932 5933 5934 5935 5936 5937 5939 5940 5941 5942 5943 5943 5945 5946 5946 5947 5948 5949 5950 5951 5952 5953 5954 5955 5956 5957 5958 5959 5959 5960 5961 5962 5963 5964 5964 5965 5965 5965 5965 5966 5966 5967 5967 5968 5968 5969 5970 5971 5971 5972 5972 5973 5973 5974 5974 5975 5975 5976 5976 5977
5865 5867 5869 5872 5874 5876 5878 5879 5881 5883 5885 5886 5888 5890 5892 5893 5895 5897 5899 5899 5901 5903 5904 5907 5910 5913 5915 5916 5917 5919 5921 5922 5923 5925 5927 5928 5930 5931 5933 5934 5935 5936 5937 5938 5939 5941 5942 5942 5943 5944 5945 5946 5947 5947 5948 5950 5951 5952 5953 5953 5954 5955 5956 5957 5958 5960 5961 5962 5962 5963 5964 5964 5965 5966 5966 5966 5967 5967 5967 5968 5968 5969 5970 5970 5971 5972 5972 5973 5973 5974 5975 5975 5976 5976 5976 5977 5977
5863 5864 5865 5868 5871 5872 5874 5876 5879 5882 5884 5885 5887 5889 5891 5892 5894 5896 5898 5900 5901 5903 5905 5907 5909 5911 5913 5914 5916 5918 5920 5921 5922 5924 5926 5927 5929 5931 5932 5933 5933 5934 5936 5937 5938 5940 5941 5942 5943 5944 5945 5946 5947 5947 5948 5949 5950 5952 5953 5953 5954 5955 5956 5957 5958 5959 5960 5961 5962 5963 5964 5965 5965 5966 5967 5967 5967 5968 5968 5968 5969 5969 5970 5971 5972 5972 5973 5973 5974 5974 5975 5976 5976 5976 5977 5977 5977
5861 5862 5862 5864 5867 5869 5871 5874 5878 5881 5882 5883 5885 5888 5889 5891 5893 5895 5897 5899 5900 5901 5903 5905 5907 5908 5910 5911 5912 5914 5915 5916 5918 5920 5922 5925 5927 5929 5930 5931 5932 5933 5934 5936 5937 5939 5940 5941 5942 5943 5944 5945 5946 5947 5948 5949 5950 5951 5952 5953 5954 5955 5956 5957 5957 5958 5960 5961 5962 5963 5964 5965 5965 5966 5967 5967 5968 5968 5968 5969 5969 5970 5970 5971 5971 5972 5972 5973 5974 5974 5975 5976 5976 5976 5976 5976 5977
5859 5861 5861 5863 5865 5867 5869 5873 5878 5880 5879 5881 5883 5885 5887 5889 5892 5894 5896 5897 5899 5900 5902 5904 5905 5906 5907 5908 5911 5913 5913 5913 5915 5916 5919 5922 5925 5927 5928 5929 5930 5931 5932 5934 5936 5938 5939 5941 5942 5943 5944 5945 5945 5946 5947 5948 5949 5950 5951 5953 5954 5955 5955 5956 5957 5958 5959 5960 5961 5963 5964 5965 5965 5966 5967 5967 5968 5968 5968 5969 5969 5970 5970 5971 5971 5972 5972 5973 5973 5974 5975 5975 5975 5976 5976 5976 5976
5856 5858 5860 5863 5864 5866 5870 5874 5878 5878 5877 5880 5882 5883 5885 5888 5891 5893 5895 5897 5899 5900 5901 5903 5904 5905 5908 5910 5912 5912 5912 5914 5917 5920 5922 5923 5923 5924 5926 5928 5929 5930 5932 5933 5935 5937 5938 5940 5941 5942 5943 5944 5945 5946 5947 5948 5949 5950 5951 5952 5953 5954 5955 5956 5957 5958 5959 5960 5961 5962 5963 5964 5965 5966 5966 5967 5968 5968 5969 5969 5969 5969 5970 5971 5971 5972 5972 5972 5973 5974 5974 5975 5975 5975 5975 5975 5975
5855 5856 5858 5861 5862 5865 5870 5873 5875 5875 5875 5878 5880 5881 5883 5886 5889 5892 5894 5896 5898 5900 5901 5902 5904 5905 5908 5910 5911 5910 5911 5915 5919 5923 5926 5925 5923 5924 5927 5930 5930 5931 5933 5934 5935 5936 5937 5938 5939 5940 5941 5943 5944 5945 5946 5948 5949 5950 5951 5952 5953 5953 5954 5955 5956 5957 5959 5959 5960 5961 5962 5963 5964 5965 5966 5967 5967 5968 5968 5969 5969 5970 5970 5971 5971 5971 5972 5972 5973 5973 5974 5974 5974 5974 5975 5975 5975
5852 5854 5857 5860 5861 5864 5868 5871 5871 5871 5872 5875 5877 5878 5881 5884 5888 5892 5893 5894 5895 5898 5900 5902 5903 5905 5907 5909 5910 5911 5913 5917 5919 5922 5924 5922 5923 5926 5930 5931 5931 5932 5933 5934 5934 5935 5935 5936 5938 5939 5940 5941 5943 5945 5946 5947 5949 5950 5951 5952 5953 5953 5954 5955 5956 5957 5958 5959 5960 5961 5961 5963 5964 5964 5965 5966 5967 5967 5968 5969 5969 5969 5970 5971 5971 5971 5971 5972 5972 5973 5973 5973 5973 5974 5974 5974 5974
5850 5853 5856 5858 5860 5863 5866 5868 5868 5869 5870 5872 5874 5876 5879 5882 5886 5889 5891 5891 5892 5895 5898 5900 5902 5904 5906 5908 5910 5912 5914 5916 5917 5919 5920 5920 5923 5927 5929 5929 5928 5929 5932 5933 5933 5934 5935 5935 5936 5938 5940 5942 5943 5945 5946 5947 5948 5949 5950 5951 5952 5953 5954 5955 5956 5957 5957 5958 5959 5960 5960 5961 5963 5964 5965 5965 5966 5967 5968 5968 5969 5969 5970 5970 5970 5970 5971 5971 5972 5972 5972 5972 5972 5973 5973 5973 5973
5849 5852 5854 5856 5859 5861 5864 5865 5866 5867 5868 5869 5872 5874 5877 5880 5884 5886 5887 5887 5889 5893 5896 5898 5900 5902 5904 5906 5909 5911 5914 5916 5917 5917 5918 5919 5922 5925 5926 5925 5926 5928 5931 5931 5931 5932 5935 5937 5939 5940 5942 5943 5944 5944 5944 5945 5947 5948 5949 5950 5951 5952 5953 5954 5955 5956 5956 5957 5958 5959 5960 5961 5962 5963 5964 5965 5965 5966 5967 5967 5968 5968 5969 5969 5969 5970 5970 5970 5971 5971 5971 5971 5971 5972 5972 5972 5972
5847 5849 5852 5855 5857 5858 5860 5863 5863 5864 5865 5867 5869 5872 5875 5879 5882 5883 5884 5885 5889 5892 5895 5897 5898 5900 5902 5905 5907 5910 5912 5914 5915 5916 5917 5918 5920 5922 5923 5924 5925 5927 5929 5929 5929 5930 5933 5937 5940 5941 5942 5942 5942 5941 5941 5943 5944 5945 5947 5948 5949 5950 5951 5952 5954 5954 5955 5956 5957 5958 5959 5960 5961 5962 5963 5964 5965 5965 5966 5967 5967 5967 5968 5968 5968 5969 5969 5969 5970 5970 5971 5971 5971 5971 5971 5971 5971
5845 5848 5851 5853 5854 5855 5857 5859 5860 5861 5862 5865 5868 5871 5874 5877 5878 5879 5881 5884 5888 5891 5893 5894 5896 5898 5900 5902 5905 5908 5910 5912 5914 5915 5916 5917 5919 5920 5922 5923 5924 5925 5926 5926 5927 5929 5931 5934 5936 5936 5937 5938 5938 5938 5939 5941 5942 5943 5945 5946 5947 5948 5949 5950 5951 5952 5954 5955 5957 5958 5959 5960 5961 5962 5962 5963 5964 5965 5965 5966 5966 5966 5966 5967 5967 5967 5968 5968 5969 5969 5969 5970 5970 5970 5970 5970 5970